914  
ASUS44 KLUB 210001  
RWRLUB  
WEST TEXAS WEATHER ROUNDUP  
NATIONAL WEATHER SERVICE LUBBOCK TX  
700 PM CDT FRI APR 20 2018  
 
NOTE: "FAIR" INDICATES FEW OR NO CLOUDS BELOW 12,000 FEET WITH NO  
SIGNIFICANT WEATHER AND/OR S TO VISIBILITY
.  
 
TXZ004-006>008-010-012-014-016-OKZ002-210100-  
TEXAS PANHANDLE/OKLAHOMA PANHANDLE  
 
CITY SKY/WX TMP DP RH WIND PRES REMARKS
 
AMARILLO CLOUDY 56 39 53 SE30G36 29.84F  
BORGER CLOUDY 58 39 49 SE18G29 29.91R  
CANADIAN CLOUDY 57 41 56 SE7 29.97R  
DALHART HVY RAIN 47 46 97 N17 29.96F FOG  
GUYMON CLOUDY 54 38 54 E15 29.96R  
HEREFORD TSTM 61 46 57 S17G24 29.85R  
PAMPA CLOUDY 57 37 48 SE30G40 29.89F  
PERRYTON CLOUDY 54 41 61 SE13 29.96F  

 
 
TXZ026-029-035-045-048-210100-  
SOUTHERN PANHANDLE/SOUTH PLAINS/ROLLING PLAINS  
 
CITY SKY/WX TMP DP RH WIND PRES REMARKS
 
CHILDRESS CLOUDY 67 42 40 SE23G35 29.90F  
SEMINOLE SUNNY 71 50 48 S26G37 29.81R HAZE  
LUBBOCK CLOUDY 68 46 45 SE38G47 29.80R  
PLAINVIEW SUNNY 64 42 45 SE31G43 29.80F  
SNYDER MOSUNNY 68 45 43 SE25G35 29.88F  

 
 
TXZ052-054-060>062-072-078-127-140-154-169-210100-  
PERMIAN BASIN/CONCHO VALLEY/BIG COUNTRY/EDWARDS PLATEAU  
 
CITY SKY/WX TMP DP RH WIND PRES REMARKS
 
ABILENE CLOUDY 68 43 40 SE29G38 29.93F  
BIG SPRING N/A 68 49 52 SE40G49 29.86F  
BRADY CLOUDY 64 46 52 S15G23 30.02F  
JUNCTION CLOUDY 63 52 67 SE16G22 30.02S  
MIDLAND SUNNY 69 53 56 S39G48 29.82S BLWGDUST  
ODESSA CLOUDY 69 53 56 S32G45 29.81S HAZE  
SAN ANGELO CLOUDY 67 48 50 SE18G28 29.94S  
SONORA CLOUDY 64 52 63 SE15 29.99F  
SWEETWATER CLOUDY 69 42 38 SE24G31 29.93F  
WINK SUNNY 75 52 44 SE20G37 29.75R  

 
 
TXZ055-058-074-075-080-082-210100-  
FAR WEST/SOUTHWEST MOUNTAINS/TRANS PECOS  
 
CITY SKY/WX TMP DP RH WIND PRES REMARKS
 
ALPINE SUNNY 80 48 32 S20G33 29.87S  
DRYDEN N/A 70 58 65 SE28G37 29.84F  
EL PASO SUNNY 76 4 6 W30G37 29.87R  
FORT STOCKTON SUNNY 73 54 51 SE32G44 29.76F  
GUADALUPE PASS SUNNY 69 4 7 W40G55 29.89S  
MARFA MOSUNNY 79 48 33 SE23G32 29.85F  
PECOS MOSUNNY 87 46 23 NE9G16 29.72R  
PRESIDIO FAIR 96 32 10 S10G21 29.70F  

 
 
TXZ014-016-019-021>030-083-210100  
TEXAS TECH WEST TEXAS MESONET/TEXAS PANHANDLE/NORTHERN SOUTH PLAINS  
 
CITY SKY/WX TMP DP RH WIND PRES REMARKS
 
ABERNATHY 5ENE N/A 65 44 44 SE31 29.83F  
AMARILLO 9NNE N/A 57 39 51 SE17 29.84S  
AMARILLO 7SSE N/A 56 38 51 SE21 29.85S  
AMHERST 1NE N/A 66 46 47 S33G43 29.81R  
BOOTLEG 11WNW N/A 56 51 82 S8 29.90R  
CANADIAN 6E N/A 54 41 62 SE6 29.95R  
CAPROCK CYN SP N/A 66 43 43 SE23 29.87F  
CHILDRESS 2NNE N/A 65 38 37 SE26 29.89F  
CLARENDON 2WSW N/A 59 40 48 SE20 29.89F  
CLAUDE 12SW N/A 57 40 53 SE23 29.85F  
DIMMITT 2NE N/A 61 44 54 SE30G41 29.82R  
FLOYDADA 2NNE N/A 65 41 42 SE29G39 29.84F  
FRIONA 2NE N/A 55 50 82 S18 29.86R  
GOODLETT 3W N/A 66 37 33 SE25 29.91F  
HART 3N N/A 64 43 47 SE28G39 29.79S  
HEREFORD 2NW N/A 59 45 59 SW16 29.90R  
MCLEAN 1E N/A 55 41 60 SE13 29.91F  
MEMPHIS 1NE N/A 62 42 48 E14 29.91S  
MULESHOE 2SSW N/A 60 52 75 S23 29.83R  
OLTON 6S N/A 65 43 44 SE29G41 29.79S  
PALO DURO SP N/A 58 39 49 SE21 29.85F  
PAMPA 2E N/A 55 38 52 SE26G36 29.90F  
PLAINVIEW 1S N/A 65 44 47 SE24G37 29.81F  
SILVERTON 7ESE N/A 64 40 42 SE30 29.85F  
TULIA 2ENE N/A 62 44 51 SE30G43 29.81F  
TURKEY 2WSW N/A 66 45 47 SE29 29.86F  
UMBARGER 3NNE N/A 60 42 50 SE25 29.83F  

 
 
TXZ033>036-039>041-045>048-210100  
TEXAS TECH WEST TEXAS MESONET/SOUTH PLAINS  
 
CITY SKY/WX TMP DP RH WIND PRES REMARKS
 
AIKEN 3WSW N/A 65 43 44 SE30 29.85R  
ANDREWS 2NE N/A 70 50 49 SE30G43 29.78F  
ANTON 6SSW N/A 67 48 49 SE35 29.80R  
BROWNFIELD 2S N/A 67 49 51 SE41G51 29.79R  
DENVR CTY 7WNW N/A 69 47 44 SE24 29.81R  
GAIL 2ESE N/A 69 47 44 SE30G44 29.84S  
LAMESA 2SE N/A 66 50 55 SE32G44 29.82F  
LUBBOCK 3WNW N/A 68 44 42 SE24G36 29.82R  
MORTON 1ENE N/A 66 46 48 S26 29.85R  
ODONNELL 1N N/A 68 46 44 SE28G38 29.81F  
PLAINS 3N N/A 69 47 45 SE26 29.82R  
RALLS 1SE N/A 67 41 39 SE30 29.86R  
REESE CENTER N/A 67 46 47 SE37 29.81R  
SEAGRAVES 1SW N/A 69 50 50 SE26G38 29.80R  
SEMINOLE 2NNE N/A 71 49 46 SE26G36 29.80R  
SLATON 2NE N/A 67 44 43 SE35G45 29.83S  
SNYDER 3E N/A 68 45 42 SE26 29.87F  
SUNDOWN 8SW N/A 68 47 47 SE31G41 29.82R  
TAHOKA 3NNE N/A 68 46 45 SE37 29.82R  
WOLFFORTH 6SSW N/A 67 47 49 SE32G44 29.81R  

 
 
TXZ031-032-036>038-042>044-210100-  
TEXAS TECH WEST TEXAS MESONET/ROLLING PLAINS  
 
CITY SKY/WX TMP DP RH WIND PRES REMARKS
 
ASPERMONT 3NE N/A 69 44 39 SE17 29.90F  
FLUVANNA 3WNW N/A 68 46 44 SE32G44 29.85F  
GRAHAM 5SSW N/A 68 47 47 SE33G44 29.82F  
GUTHRIE 10WSW N/A 68 42 37 SE23 29.87F  
HASKELL 1NW N/A 68 40 36 SE16 29.91F  
JAYTON 1SSE N/A 69 42 37 SE21G31 29.87F  
KNOX CITY 3NW N/A 69 41 35 SE20 29.91F  
LK A HENRY 1NW N/A 69 42 38 SE23 29.86S  
NORTHFIELD 1S N/A 67 41 38 SE25G36 29.87F  
ODELL 4ENE N/A 66 37 34 SE21 29.95S  
PADUCAH 10SW N/A 68 42 39 SE26 29.88F  
POST 1NE N/A 69 43 38 SE28 29.83F  
RRING SPRGS 3N N/A 67 44 44 SE30G39 29.87F  
SEYMOUR 3NW N/A 68 39 34 SE24 29.94F  
SPUR 1W N/A 68 40 36 SE22G31 29.85F  
WEINERT 2NNE N/A 69 42 37 SE18 29.93F  
WHITE RVR 6NE N/A 67 41 38 SE25 29.85S  

 
 
TXZ052-054-060>062-072-078-127-140-154-169-210100-  
TEXAS TECH WEST TEXAS MESONET/PERMIAN BASIN/  
CONCHO VALLEY/BIG COUNTRY/EDWARDS PLATEAU  
 
CITY SKY/WX TMP DP RH WIND PRES REMARKS
 
COYANOSA 2N N/A 74 53 47 SE24 29.72S  
JUNCTION 1SSW N/A 62 52 67 E10 30.02R  
MERTZON 3NNE N/A 65 49 56 SE16 29.95R  
SAN ANGELO 7NW N/A 66 44 44 SE21 29.94S  
STRLNG CT 4WSW N/A 66 47 51 SE14 29.91F  
ST LAWRNCE 5SW N/A 66 50 57 SE33G45 29.88F  
SWEETWATR 11SW N/A 67 45 44 SE20 29.93R  
WALL 1E N/A 67 47 50 SE21 29.96F  

 
 
TXZ055-058-074-075-080-082-210100-  
TEXAS TECH WEST TEXAS MESONET/FAR WEST/SOUTHWEST MOUNTAINS/TRANS PECOS  
 
CITY SKY/WX TMP DP RH WIND PRES REMARKS
 
PRSMN GAP BBNP N/A 80 54 40 NE14 29.78F  
GUADLPE MTN NP N/A 65 3 8 NW39 29.91S  

 
 
 
CLICK HERE TO GO TO PREVIOUS BULLETINS.

The Nexlab TX Page Main Text Page